Location: Newark
(49.8348°N, 24.0280°E)
Time: 19:29:55
(UTC+00:00)

Explorer 7 - Pass Details

Date: 19 January 2020
Orbit: 485 x 679 km, 50.3° (Epoch: 22 February)

Event Time Altitude Azimuth Distance (km) Brightness Sun altitude
Rises 03:05:15 0° 279° (W) 2,585 - -29.8°
Reaches altitude 10° 03:07:23 10° 279° (W) 1,720 - -29.4°
Maximum altitude 03:11:17 89° 186° (S) 529 - -28.8°
Exits shadow 03:12:58 34° 101° (E) 891 8.3 -28.5°
Drops below altitude 10° 03:15:24 10° 101° (E) 1,815 10.4 -28.1°
Sets 03:17:42 0° 101° (ESE) 2,742 11.6 -27.7°
